Tracking 30105 objects as of 25-Jan-2025
HD Live streaming from Space Station
objects crossing your sky now

QUIKSCAT

Track QUIKSCAT now!
10-day predictions
QUIKSCAT is classified as:


NORAD ID: 25789
Int'l Code: 1999-034A
Perigee: 660.0 km
Apogee: 798.5 km
Inclination: 98.3 °
Period: 99.2 minutes
Semi major axis: 7100 km
RCS: 2.9895 m2 (large)
Launch date: June 20, 1999
Source: United States (US)
Launch site: AIR FORCE WESTERN TEST RANGE (AFWTR)

Detailed snapshots of the winds swirling above the world's oceans.
Your satellite tracking list
Your tracking list is empty




NASA's NSSDC Master Catalog

Two Line Element Set (TLE):
1 25789U 99034A   25024.68103718  .00001198  00000-0  29574-3 0  9992
2 25789  98.3421 266.3153 0097539  42.5681 318.3022 14.51095013338759
Source of the keplerian elements: AFSPC